Flag for Japan Weather past 2 weeks in Okayama, Japan

Now
75 °F

Mild.


Feels Like: 76 °F
Forecast: 68 / 72 °F
Wind: 3 mph from West

Location: Takamatsu

Current Time: Sep 6, 2015 at 1:21:43 AM

Latest Report: Sep 6, 2015 at 12:00 AM


Visibility: N/A

Pressure: 29.80 "Hg

Humidity: 80%

Dew point: 69 °F

Location of OkayamaLocation

Historic Weather in Okayama — Graph

°F

Okayama temperature yesterday

Maximum temperature yesterday: 81 °F (at 3:00 PM)
Minimum temperature yesterday: 69 °F (at 6:00 AM)
Average temperature yesterday: 76 °F

Past Weeks' High & Low Weather Summary

 TemperatureHumidityPressure
High90 °F (Aug 23, 2:00 PM)98% (Sep 1, 2:00 AM)29.97 "Hg (Sep 1, 2:00 AM)
Low69 °F (Sep 5, 6:00 AM)41% (Aug 23, 3:00 PM)29.23 "Hg (Aug 25, 2:00 PM)
Average78 °F76%29.78 "Hg
* Reported Midnight between Aug 21 and Aug 22 — Midnight between Sep 5 and Sep 6, Okayama, Weather by CustomWeather, © 2015

Note: Actual official high and low records may vary slightly from our data, if they occured in-between our weather recording intervals... More about our weather records

Advertising

Okayama weather history for previous 24 hours

 ConditionsComfort  
Time TempWeatherWind HumidityBarometerVisibility
12:00 AM
Sun, Sep 6
75 °FMild.3 mph80%29.80 "HgN/A
11:00 PM
Sat, Sep 5
76 °FMild.2 mph77%29.80 "HgN/A
10:00 PM76 °FMild.2 mph79%29.82 "HgN/A
9:00 PM76 °FOvercast.3 mph77%29.82 "Hg9 mi
8:00 PM77 °FWarm.2 mph72%29.83 "HgN/A
7:00 PM77 °FWarm.5 mph69%29.82 "HgN/A
6:00 PM79 °FOvercast.5 mph62%29.81 "Hg9 mi
5:00 PM79 °FWarm.5 mph60%29.81 "HgN/A
4:00 PM80 °FWarm.6 mph57%29.81 "HgN/A
3:00 PM81 °FOvercast.7 mph58%29.81 "Hg12 mi
2:00 PM81 °FWarm.7 mph58%29.82 "HgN/A
1:00 PM80 °FWarm.9 mph59%29.84 "HgN/A
12:00 PM80 °FOvercast.8 mph61%29.86 "Hg12 mi
11:00 AM80 °FWarm.8 mph62%29.89 "HgN/A
10:00 AM79 °FWarm.9 mph66%29.90 "HgN/A
9:00 AM78 °FOvercast.8 mph66%29.90 "Hg12 mi
8:00 AM76 °FMild.5 mph78%29.90 "HgN/A
7:00 AM71 °FMild.1 mph88%29.90 "HgN/A
6:00 AM69 °FScattered clouds.2 mph91%29.89 "Hg9 mi
5:00 AM70 °FMild.1 mph91%29.89 "HgN/A
4:00 AM70 °FMild.1 mph90%29.90 "HgN/A
3:00 AM71 °FPassing clouds.2 mph88%29.90 "Hg9 mi
2:00 AM71 °FMild.1 mph88%29.90 "HgN/A
1:00 AM71 °FMild.1 mph86%29.90 "HgN/A
Weather by CustomWeather, © 2015

See weather overviewHow to use our weather pages